Time,TemperatureF,DewpointF,PressureIn,WindDirection,WindDirectionDegrees,WindSpeedMPH,WindSpeedGustMPH,Humidity,HourlyPrecipIn,Conditions,Clouds,dailyrainin,SolarRadiationWatts/m^2,SoftwareType,DateUTC
2013-06-04 00:22:00,67.0,34.0,-100.00,SW,227,18.0,23.0,29,0.00,,,0.00,0.000000,,2013-06-04 07:22:00,
2013-06-04 01:22:00,65.0,39.0,-100.00,SW,220,19.0,26.0,39,0.00,,,0.00,0.000000,,2013-06-04 08:22:00,
2013-06-04 01:32:00,65.0,39.0,-100.00,SW,220,19.0,26.0,39,0.00,,,0.00,0.000000,,2013-06-04 08:32:00,
2013-06-04 01:42:00,65.0,39.0,-100.00,SW,220,19.0,26.0,39,0.00,,,0.00,0.000000,,2013-06-04 08:42:00,
2013-06-04 01:52:00,65.0,39.0,-100.00,SW,220,19.0,26.0,39,0.00,,,0.00,0.000000,,2013-06-04 08:52:00,
2013-06-04 02:12:00,66.0,42.0,-100.00,SW,226,19.0,28.0,42,0.00,,,0.00,0.000000,,2013-06-04 09:12:00,
2013-06-04 02:22:00,66.0,42.0,-100.00,SW,226,19.0,28.0,42,0.00,,,0.00,0.000000,,2013-06-04 09:22:00,
2013-06-04 02:32:00,66.0,42.0,-100.00,SW,226,19.0,28.0,42,0.00,,,0.00,0.000000,,2013-06-04 09:32:00,
2013-06-04 02:42:00,66.0,42.0,-100.00,SW,226,19.0,28.0,42,0.00,,,0.00,0.000000,,2013-06-04 09:42:00,
2013-06-04 02:53:00,66.0,42.0,-100.00,SW,226,19.0,28.0,42,0.00,,,0.00,0.000000,,2013-06-04 09:53:00,
2013-06-04 03:22:00,65.0,41.0,-100.00,SW,220,20.0,28.0,42,0.00,,,0.00,0.000000,,2013-06-04 10:22:00,
2013-06-04 03:32:00,65.0,41.0,-100.00,SW,220,20.0,28.0,42,0.00,,,0.00,0.000000,,2013-06-04 10:32:00,
2013-06-04 03:42:00,65.0,41.0,-100.00,SW,220,20.0,28.0,42,0.00,,,0.00,0.000000,,2013-06-04 10:42:00,
2013-06-04 03:52:00,65.0,41.0,-100.00,SW,220,20.0,28.0,42,0.00,,,0.00,0.000000,,2013-06-04 10:52:00,
2013-06-04 04:22:00,62.0,39.0,-100.00,SW,227,19.0,29.0,43,0.00,,,0.00,0.000000,,2013-06-04 11:22:00,
2013-06-04 04:32:00,62.0,39.0,-100.00,SW,227,19.0,29.0,43,0.00,,,0.00,0.000000,,2013-06-04 11:32:00,
2013-06-04 04:42:00,62.0,39.0,-100.00,SW,227,19.0,29.0,43,0.00,,,0.00,0.000000,,2013-06-04 11:42:00,
2013-06-04 04:52:00,62.0,39.0,-100.00,SW,227,19.0,29.0,43,0.00,,,0.00,0.000000,,2013-06-04 11:52:00,
2013-06-04 05:22:00,62.0,38.0,-100.00,SW,228,18.0,29.0,41,0.00,,,0.00,0.000000,,2013-06-04 12:22:00,
2013-06-04 05:32:00,62.0,38.0,-100.00,SW,228,18.0,29.0,41,0.00,,,0.00,0.000000,,2013-06-04 12:32:00,
2013-06-04 05:42:00,62.0,38.0,-100.00,SW,228,18.0,29.0,41,0.00,,,0.00,0.000000,,2013-06-04 12:42:00,
2013-06-04 05:52:00,62.0,38.0,-100.00,SW,228,18.0,29.0,41,0.00,,,0.00,0.000000,,2013-06-04 12:52:00,
2013-06-04 06:22:00,60.0,40.0,-100.00,SW,223,19.0,29.0,47,0.00,,,0.00,2.000000,,2013-06-04 13:22:00,
2013-06-04 06:32:00,60.0,40.0,-100.00,SW,223,19.0,29.0,47,0.00,,,0.00,2.000000,,2013-06-04 13:32:00,
2013-06-04 06:42:00,60.0,40.0,-100.00,SW,223,19.0,29.0,47,0.00,,,0.00,2.000000,,2013-06-04 13:42:00,
2013-06-04 06:52:00,60.0,40.0,-100.00,SW,223,19.0,29.0,47,0.00,,,0.00,2.000000,,2013-06-04 13:52:00,
2013-06-04 07:22:00,66.0,40.0,-100.00,SW,222,20.0,28.0,38,0.00,,,0.00,95.000000,,2013-06-04 14:22:00,
2013-06-04 07:32:00,66.0,40.0,-100.00,SW,222,20.0,28.0,38,0.00,,,0.00,95.000000,,2013-06-04 14:32:00,
2013-06-04 07:42:00,66.0,40.0,-100.00,SW,222,20.0,28.0,38,0.00,,,0.00,95.000000,,2013-06-04 14:42:00,
2013-06-04 07:52:00,66.0,40.0,-100.00,SW,222,20.0,28.0,38,0.00,,,0.00,95.000000,,2013-06-04 14:52:00,
2013-06-04 08:22:00,70.0,39.0,29.89,SW,214,19.0,27.0,32,0.00,,,0.00,315.000000,,2013-06-04 15:22:00,
2013-06-04 08:33:00,70.0,39.0,29.89,SW,214,19.0,27.0,32,0.00,,,0.00,315.000000,,2013-06-04 15:33:00,
2013-06-04 08:42:00,70.0,39.0,29.89,SW,214,19.0,27.0,32,0.00,,,0.00,315.000000,,2013-06-04 15:42:00,
2013-06-04 08:53:00,70.0,39.0,29.89,SW,214,19.0,27.0,32,0.00,,,0.00,315.000000,,2013-06-04 15:53:00,
2013-06-04 09:22:00,77.0,39.0,-100.00,SW,214,20.0,31.0,26,0.00,,,0.00,546.000000,,2013-06-04 16:22:00,
2013-06-04 09:33:00,77.0,39.0,-100.00,SW,214,20.0,31.0,26,0.00,,,0.00,546.000000,,2013-06-04 16:33:00,
2013-06-04 09:42:00,77.0,39.0,-100.00,SW,214,20.0,31.0,26,0.00,,,0.00,546.000000,,2013-06-04 16:42:00,
2013-06-04 09:52:00,77.0,39.0,-100.00,SW,214,20.0,31.0,26,0.00,,,0.00,546.000000,,2013-06-04 16:52:00,
2013-06-04 10:23:00,82.0,42.0,-100.00,SSW,209,18.0,28.0,24,0.00,,,0.00,759.000000,,2013-06-04 17:23:00,
2013-06-04 10:32:00,82.0,42.0,-100.00,SSW,209,18.0,28.0,24,0.00,,,0.00,759.000000,,2013-06-04 17:32:00,
2013-06-04 10:42:00,82.0,42.0,-100.00,SSW,209,18.0,28.0,24,0.00,,,0.00,759.000000,,2013-06-04 17:42:00,
2013-06-04 10:52:00,82.0,42.0,-100.00,SSW,209,18.0,28.0,24,0.00,,,0.00,759.000000,,2013-06-04 17:52:00,
2013-06-04 11:22:00,84.0,41.0,-100.00,SSW,213,17.0,27.0,22,0.00,,,0.00,937.000000,,2013-06-04 18:22:00,
2013-06-04 11:32:00,84.0,41.0,-100.00,SSW,213,17.0,27.0,22,0.00,,,0.00,937.000000,,2013-06-04 18:32:00,
2013-06-04 11:42:00,84.0,41.0,-100.00,SSW,213,17.0,27.0,22,0.00,,,0.00,937.000000,,2013-06-04 18:42:00,
2013-06-04 11:52:00,84.0,41.0,-100.00,SSW,213,17.0,27.0,22,0.00,,,0.00,937.000000,,2013-06-04 18:52:00,
2013-06-04 12:22:00,86.0,41.0,29.91,SW,216,21.0,26.0,21,0.00,,,0.00,1063.000000,,2013-06-04 19:22:00,
2013-06-04 12:32:00,86.0,41.0,29.91,SW,216,21.0,26.0,21,0.00,,,0.00,1063.000000,,2013-06-04 19:32:00,
2013-06-04 12:42:00,86.0,41.0,29.91,SW,216,21.0,26.0,21,0.00,,,0.00,1063.000000,,2013-06-04 19:42:00,
2013-06-04 12:52:00,86.0,41.0,29.91,SW,216,21.0,26.0,21,0.00,,,0.00,1063.000000,,2013-06-04 19:52:00,
2013-06-04 13:22:00,88.0,42.0,29.90,SSW,212,24.0,29.0,20,0.00,,,0.00,1127.000000,,2013-06-04 20:22:00,
2013-06-04 13:32:00,88.0,42.0,29.90,SSW,212,24.0,29.0,20,0.00,,,0.00,1127.000000,,2013-06-04 20:32:00,
2013-06-04 13:42:00,88.0,42.0,29.90,SSW,212,24.0,29.0,20,0.00,,,0.00,1127.000000,,2013-06-04 20:42:00,
2013-06-04 13:52:00,88.0,42.0,29.90,SSW,212,24.0,29.0,20,0.00,,,0.00,1127.000000,,2013-06-04 20:52:00,
2013-06-04 14:22:00,90.0,41.0,29.90,SSW,206,23.0,35.0,18,0.00,,,0.00,1132.000000,,2013-06-04 21:22:00,
2013-06-04 14:33:00,90.0,41.0,29.90,SSW,206,23.0,35.0,18,0.00,,,0.00,1132.000000,,2013-06-04 21:33:00,
2013-06-04 14:42:00,90.0,41.0,29.90,SSW,206,23.0,35.0,18,0.00,,,0.00,1132.000000,,2013-06-04 21:42:00,
2013-06-04 14:52:00,90.0,41.0,29.90,SSW,206,23.0,35.0,18,0.00,,,0.00,1132.000000,,2013-06-04 21:52:00,
2013-06-04 15:22:00,87.0,42.0,-100.00,SW,216,25.0,33.0,21,0.00,,,0.00,1067.000000,,2013-06-04 22:22:00,
2013-06-04 15:32:00,87.0,42.0,-100.00,SW,216,25.0,33.0,21,0.00,,,0.00,1067.000000,,2013-06-04 22:32:00,
2013-06-04 15:42:00,87.0,42.0,-100.00,SW,216,25.0,33.0,21,0.00,,,0.00,1067.000000,,2013-06-04 22:42:00,
2013-06-04 15:52:00,87.0,42.0,-100.00,SW,216,25.0,33.0,21,0.00,,,0.00,1067.000000,,2013-06-04 22:52:00,
2013-06-04 16:22:00,85.0,43.0,29.88,SW,218,27.0,35.0,23,0.00,,,0.00,941.000000,,2013-06-04 23:22:00,
2013-06-04 16:32:00,85.0,43.0,29.88,SW,218,27.0,35.0,23,0.00,,,0.00,941.000000,,2013-06-04 23:32:00,
2013-06-04 16:42:00,85.0,43.0,29.88,SW,218,27.0,35.0,23,0.00,,,0.00,941.000000,,2013-06-04 23:42:00,
2013-06-04 16:52:00,85.0,43.0,29.88,SW,218,27.0,35.0,23,0.00,,,0.00,941.000000,,2013-06-04 23:52:00,
2013-06-04 17:22:00,84.0,46.0,29.89,SW,220,28.0,38.0,27,0.00,,,0.00,755.000000,,2013-06-05 00:22:00,
2013-06-04 17:32:00,84.0,46.0,29.89,SW,220,28.0,38.0,27,0.00,,,0.00,755.000000,,2013-06-05 00:32:00,
2013-06-04 17:42:00,84.0,46.0,29.89,SW,220,28.0,38.0,27,0.00,,,0.00,755.000000,,2013-06-05 00:42:00,
2013-06-04 17:52:00,84.0,46.0,29.89,SW,220,28.0,38.0,27,0.00,,,0.00,755.000000,,2013-06-05 00:52:00,
2013-06-04 18:22:00,80.0,41.0,29.89,SW,222,25.0,40.0,25,0.00,,,0.00,540.000000,,2013-06-05 01:22:00,
2013-06-04 18:32:00,80.0,41.0,29.89,SW,222,25.0,40.0,25,0.00,,,0.00,540.000000,,2013-06-05 01:32:00,
2013-06-04 18:42:00,80.0,41.0,29.89,SW,222,25.0,40.0,25,0.00,,,0.00,540.000000,,2013-06-05 01:42:00,
2013-06-04 18:52:00,80.0,41.0,29.89,SW,222,25.0,40.0,25,0.00,,,0.00,540.000000,,2013-06-05 01:52:00,
2013-06-04 19:22:00,77.0,45.0,-100.00,SW,222,24.0,37.0,32,0.00,,,0.00,274.000000,,2013-06-05 02:22:00,
2013-06-04 19:32:00,77.0,45.0,-100.00,SW,222,24.0,37.0,32,0.00,,,0.00,274.000000,,2013-06-05 02:32:00,
2013-06-04 19:42:00,77.0,45.0,-100.00,SW,222,24.0,37.0,32,0.00,,,0.00,274.000000,,2013-06-05 02:42:00,
2013-06-04 19:52:00,77.0,45.0,-100.00,SW,222,24.0,37.0,32,0.00,,,0.00,274.000000,,2013-06-05 02:52:00,
2013-06-04 20:22:00,71.0,50.0,-100.00,SW,219,22.0,38.0,47,0.00,,,0.00,66.000000,,2013-06-05 03:22:00,
2013-06-04 20:33:00,71.0,50.0,-100.00,SW,219,22.0,38.0,47,0.00,,,0.00,66.000000,,2013-06-05 03:33:00,
2013-06-04 20:43:00,71.0,50.0,-100.00,SW,219,22.0,38.0,47,0.00,,,0.00,66.000000,,2013-06-05 03:43:00,
2013-06-04 20:53:00,71.0,50.0,-100.00,SW,219,22.0,38.0,47,0.00,,,0.00,66.000000,,2013-06-05 03:53:00,
2013-06-04 21:22:00,68.0,50.0,-100.00,SW,221,23.0,34.0,53,0.00,,,0.00,1.000000,,2013-06-05 04:22:00,
2013-06-04 21:33:00,68.0,50.0,-100.00,SW,221,23.0,34.0,53,0.00,,,0.00,1.000000,,2013-06-05 04:33:00,
2013-06-04 21:42:00,68.0,50.0,-100.00,SW,221,23.0,34.0,53,0.00,,,0.00,1.000000,,2013-06-05 04:42:00,
2013-06-04 21:53:00,68.0,50.0,-100.00,SW,221,23.0,34.0,53,0.00,,,0.00,1.000000,,2013-06-05 04:53:00,
2013-06-04 22:22:00,67.0,50.0,-100.00,SW,228,20.0,36.0,55,0.00,,,0.00,0.000000,,2013-06-05 05:22:00,
2013-06-04 22:32:00,67.0,50.0,-100.00,SW,228,20.0,36.0,55,0.00,,,0.00,0.000000,,2013-06-05 05:32:00,
2013-06-04 22:42:00,67.0,50.0,-100.00,SW,228,20.0,36.0,55,0.00,,,0.00,0.000000,,2013-06-05 05:42:00,
2013-06-04 22:52:00,67.0,50.0,-100.00,SW,228,20.0,36.0,55,0.00,,,0.00,0.000000,,2013-06-05 05:52:00,
2013-06-04 23:22:00,67.0,48.0,-100.00,SW,221,20.0,29.0,51,0.00,,,0.00,0.000000,,2013-06-05 06:22:00,
2013-06-04 23:32:00,67.0,48.0,-100.00,SW,221,20.0,29.0,51,0.00,,,0.00,0.000000,,2013-06-05 06:32:00,
2013-06-04 23:42:00,67.0,48.0,-100.00,SW,221,20.0,29.0,51,0.00,,,0.00,0.000000,,2013-06-05 06:42:00,
2013-06-04 23:52:00,67.0,48.0,-100.00,SW,221,20.0,29.0,51,0.00,,,0.00,0.000000,,2013-06-05 06:52:00,